LNI706 WARR-WAAA

Flight info

Callsign LNI706
Flight time 1h 19m
Altitude 35000
Route PEDSO T15 ENDOG
Aircraft B738/M-SDE2E3FGHIRWXY/LB1

Departure

Time 2026-04-22 06:58
Airport Juanda International Airport (WARR)

Arrival

Time 2026-04-22 08:17
Airport Sultan Hasanuddin International Airport (WAAA)
Time Latitude Longitude Altitude Speed Heading
2026-04-22 06:33 -7.37525 112.79057 8 ft 0 kts
2026-04-22 06:47 -7.37529 112.79057 8 ft 2 kts
2026-04-22 06:47 -7.37548 112.79054 8 ft 3 kts
2026-04-22 06:47 -7.37568 112.79050 8 ft 3 kts
2026-04-22 06:48 -7.37587 112.79047 8 ft 3 kts 18°
2026-04-22 06:48 -7.37603 112.79039 10 ft 3 kts 61°
2026-04-22 06:48 -7.37607 112.79021 8 ft 3 kts 94°
2026-04-22 06:48 -7.37606 112.79009 8 ft 1 kts 99°
2026-04-22 06:50 -7.37610 112.79035 8 ft 7 kts 99°
2026-04-22 06:51 -7.37622 112.79085 8 ft 7 kts 122°
2026-04-22 06:51 -7.37669 112.79097 9 ft 7 kts 187°
2026-04-22 06:51 -7.37717 112.79089 9 ft 7 kts 189°
2026-04-22 06:51 -7.37751 112.79083 8 ft 2 kts 189°
2026-04-22 06:52 -7.37781 112.79078 8 ft 10 kts 189°
2026-04-22 06:52 -7.37845 112.79058 8 ft 8 kts 219°
2026-04-22 06:52 -7.37860 112.79007 8 ft 8 kts 276°
2026-04-22 06:52 -7.37851 112.78954 8 ft 8 kts 279°
2026-04-22 06:53 -7.37841 112.78890 9 ft 12 kts 279°
2026-04-22 06:53 -7.37824 112.78786 8 ft 18 kts 279°
2026-04-22 06:53 -7.37801 112.78649 8 ft 21 kts 279°
2026-04-22 06:53 -7.37778 112.78504 8 ft 21 kts 279°
2026-04-22 06:54 -7.37755 112.78360 8 ft 20 kts 279°
2026-04-22 06:54 -7.37733 112.78222 8 ft 20 kts 279°
2026-04-22 06:54 -7.37711 112.78087 8 ft 19 kts 279°
2026-04-22 06:54 -7.37690 112.77957 10 ft 19 kts 279°
2026-04-22 06:55 -7.37670 112.77832 9 ft 18 kts 279°
2026-04-22 06:55 -7.37650 112.77710 8 ft 17 kts 279°
2026-04-22 06:55 -7.37630 112.77593 8 ft 17 kts 279°
2026-04-22 06:55 -7.37611 112.77481 8 ft 16 kts 279°
2026-04-22 06:56 -7.37618 112.77407 7 ft 11 kts 238°
2026-04-22 06:56 -7.37682 112.77379 7 ft 9 kts 189°
2026-04-22 06:56 -7.37725 112.77372 7 ft 6 kts 189°
2026-04-22 06:56 -7.37765 112.77372 10 ft 6 kts 147°
2026-04-22 06:57 -7.37777 112.77411 8 ft 6 kts 100°
2026-04-22 06:57 -7.37792 112.77504 8 ft 39 kts 99°
2026-04-22 06:57 -7.37883 112.78065 8 ft 121 kts 99°
2026-04-22 06:57 -7.38055 112.79124 119 ft 177 kts 99°
2026-04-22 06:58 -7.38256 112.80380 1013 ft 181 kts 98°
2026-04-22 06:58 -7.38442 112.81641 2026 ft 186 kts 98°
2026-04-22 06:58 -7.38640 112.83005 2686 ft 207 kts 97°
2026-04-22 06:58 -7.38879 112.84526 3076 ft 232 kts 98°
2026-04-22 06:59 -7.39142 112.86171 3680 ft 245 kts 98°
2026-04-22 06:59 -7.39425 112.87944 4236 ft 265 kts 98°
2026-04-22 06:59 -7.39730 112.89777 5154 ft 271 kts 98°
2026-04-22 06:59 -7.39899 112.91673 6127 ft 274 kts 82°
2026-04-22 07:00 -7.39265 112.93475 7081 ft 276 kts 59°
2026-04-22 07:00 -7.38185 112.95087 8007 ft 280 kts 53°
2026-04-22 07:00 -7.36990 112.96656 8866 ft 285 kts 52°
2026-04-22 07:00 -7.35763 112.98244 9724 ft 290 kts 52°
2026-04-22 07:01 -7.34522 112.99864 10509 ft 298 kts 52°
2026-04-22 07:01 -7.33207 113.01598 10745 ft 325 kts 52°
2026-04-22 07:01 -7.31797 113.03476 11042 ft 345 kts 53°
2026-04-22 07:01 -7.30813 113.04793 11452 ft 351 kts 53°
2026-04-22 07:02 -7.29342 113.06767 12230 ft 353 kts 53°
2026-04-22 07:02 -7.27383 113.09400 13282 ft 357 kts 53°
2026-04-22 07:02 -7.26407 113.10778 13760 ft 360 kts 58°
2026-04-22 07:02 -7.25436 113.13108 14460 ft 364 kts 71°
2026-04-22 07:03 -7.24662 113.15550 15141 ft 368 kts 72°
2026-04-22 07:03 -7.23880 113.18018 15788 ft 372 kts 71°
2026-04-22 07:03 -7.23084 113.20504 16462 ft 375 kts 71°
2026-04-22 07:03 -7.22274 113.23016 17082 ft 379 kts 71°
2026-04-22 07:04 -7.21451 113.25546 17671 ft 383 kts 71°
2026-04-22 07:04 -7.20613 113.28108 18244 ft 387 kts 71°
2026-04-22 07:04 -7.19766 113.30690 18815 ft 390 kts 71°
2026-04-22 07:04 -7.18912 113.33288 19333 ft 394 kts 71°
2026-04-22 07:05 -7.18042 113.35929 19840 ft 398 kts 71°
2026-04-22 07:05 -7.17166 113.38588 20325 ft 402 kts 71°
2026-04-22 07:05 -7.16281 113.41275 20822 ft 405 kts 71°
2026-04-22 07:05 -7.15391 113.43977 21261 ft 409 kts 71°
2026-04-22 07:06 -7.14491 113.46711 21686 ft 413 kts 71°
2026-04-22 07:06 -7.13583 113.49469 22106 ft 417 kts 71°
2026-04-22 07:06 -7.12667 113.52245 22534 ft 419 kts 71°
2026-04-22 07:06 -7.11747 113.55035 22939 ft 422 kts 71°
2026-04-22 07:07 -7.10819 113.57853 23312 ft 425 kts 71°
2026-04-22 07:07 -7.09883 113.60689 23684 ft 428 kts 71°
2026-04-22 07:07 -7.08941 113.63546 24028 ft 431 kts 71°
2026-04-22 07:07 -7.07995 113.66416 24398 ft 433 kts 71°
2026-04-22 07:08 -7.07042 113.69305 24768 ft 435 kts 71°
2026-04-22 07:08 -7.06087 113.72202 25110 ft 437 kts 71°
2026-04-22 07:08 -7.05125 113.75113 25439 ft 440 kts 71°
2026-04-22 07:08 -7.04158 113.78043 25758 ft 442 kts 71°
2026-04-22 07:09 -7.03187 113.80983 26073 ft 444 kts 71°
2026-04-22 07:09 -7.02224 113.83902 26373 ft 446 kts 72°
2026-04-22 07:09 -7.01230 113.86909 26671 ft 448 kts 71°
2026-04-22 07:09 -7.00258 113.89852 26950 ft 450 kts 72°
2026-04-22 07:10 -6.99267 113.92849 27251 ft 452 kts 72°
2026-04-22 07:10 -6.98274 113.95854 27523 ft 454 kts 72°
2026-04-22 07:10 -6.97277 113.98870 27785 ft 456 kts 72°
2026-04-22 07:10 -6.96263 114.01903 28046 ft 458 kts 71°
2026-04-22 07:11 -6.95237 114.04943 28317 ft 459 kts 71°
2026-04-22 07:11 -6.94206 114.07989 28576 ft 461 kts 71°
2026-04-22 07:11 -6.93169 114.11048 28818 ft 463 kts 71°
2026-04-22 07:11 -6.92129 114.14120 29048 ft 465 kts 71°
2026-04-22 07:12 -6.91087 114.17202 29286 ft 466 kts 71°
2026-04-22 07:12 -6.90041 114.20296 29505 ft 468 kts 71°
2026-04-22 07:12 -6.88994 114.23395 29727 ft 469 kts 71°
2026-04-22 07:12 -6.87942 114.26510 29946 ft 471 kts 71°
2026-04-22 07:13 -6.86887 114.29632 30184 ft 471 kts 71°
2026-04-22 07:13 -6.85831 114.32753 30477 ft 471 kts 71°
2026-04-22 07:13 -6.84778 114.35865 30803 ft 469 kts 71°
2026-04-22 07:13 -6.83729 114.38968 31119 ft 468 kts 71°
2026-04-22 07:14 -6.82681 114.42068 31442 ft 468 kts 71°
2026-04-22 07:14 -6.81634 114.45165 31757 ft 467 kts 71°
2026-04-22 07:14 -6.80590 114.48253 32084 ft 466 kts 71°
2026-04-22 07:14 -6.79546 114.51338 32419 ft 465 kts 71°
2026-04-22 07:15 -6.78505 114.54412 32722 ft 464 kts 71°
2026-04-22 07:15 -6.77463 114.57487 33037 ft 464 kts 71°
2026-04-22 07:15 -6.76426 114.60551 33381 ft 463 kts 71°
2026-04-22 07:15 -6.75388 114.63612 33718 ft 462 kts 71°
2026-04-22 07:16 -6.74354 114.66664 34027 ft 461 kts 71°
2026-04-22 07:16 -6.73321 114.69712 34352 ft 460 kts 71°
2026-04-22 07:16 -6.72288 114.72761 34683 ft 460 kts 71°
2026-04-22 07:16 -6.71255 114.75805 34834 ft 462 kts 71°
2026-04-22 07:17 -6.70217 114.78868 34831 ft 462 kts 71°
2026-04-22 07:17 -6.68152 114.84953 34830 ft 458 kts 71°
2026-04-22 07:18 -6.66102 114.90992 34833 ft 455 kts 71°
2026-04-22 07:18 -6.64057 114.97017 34834 ft 454 kts 71°
2026-04-22 07:19 -6.62013 115.03033 34832 ft 455 kts 71°
2026-04-22 07:19 -6.59967 115.09053 34836 ft 456 kts 71°
2026-04-22 07:20 -6.57913 115.15093 34834 ft 456 kts 71°
2026-04-22 07:20 -6.55856 115.21143 34835 ft 458 kts 71°
2026-04-22 07:21 -6.53790 115.27215 34836 ft 460 kts 71°
2026-04-22 07:21 -6.51715 115.33307 34831 ft 461 kts 71°
2026-04-22 07:22 -6.49637 115.39408 34835 ft 462 kts 71°
2026-04-22 07:22 -6.47569 115.45480 34834 ft 462 kts 71°
2026-04-22 07:23 -6.45484 115.51594 34834 ft 463 kts 71°
2026-04-22 07:23 -6.43384 115.57749 34831 ft 462 kts 71°
2026-04-22 07:24 -6.41299 115.63862 34834 ft 462 kts 71°
2026-04-22 07:24 -6.39230 115.69924 34834 ft 461 kts 71°
2026-04-22 07:25 -6.37151 115.76012 34831 ft 460 kts 71°
2026-04-22 07:25 -6.35076 115.82089 34816 ft 459 kts 71°
2026-04-22 07:26 -6.33004 115.88153 34833 ft 458 kts 71°
2026-04-22 07:26 -6.30933 115.94204 34832 ft 457 kts 71°
2026-04-22 07:27 -6.28867 116.00245 34835 ft 457 kts 71°
2026-04-22 07:27 -6.26800 116.06286 34833 ft 457 kts 71°
2026-04-22 07:28 -6.23704 116.15341 34832 ft 457 kts 71°
2026-04-22 07:28 -6.21634 116.21379 34834 ft 457 kts 71°
2026-04-22 07:29 -6.19561 116.27427 34834 ft 457 kts 71°
2026-04-22 07:29 -6.17489 116.33470 34833 ft 458 kts 71°
2026-04-22 07:30 -6.15412 116.39523 34834 ft 458 kts 71°
2026-04-22 07:30 -6.13335 116.45575 34830 ft 459 kts 71°
2026-04-22 07:31 -6.11253 116.51641 34834 ft 459 kts 71°
2026-04-22 07:31 -6.09171 116.57706 34833 ft 460 kts 71°
2026-04-22 07:32 -6.07082 116.63784 34833 ft 460 kts 71°
2026-04-22 07:32 -6.04994 116.69859 34836 ft 460 kts 71°
2026-04-22 07:33 -6.02904 116.75936 34833 ft 460 kts 71°
2026-04-22 07:33 -6.00815 116.82015 34831 ft 460 kts 71°
2026-04-22 07:34 -5.98722 116.88099 34835 ft 461 kts 71°
2026-04-22 07:34 -5.96627 116.94183 34837 ft 461 kts 71°
2026-04-22 07:35 -5.94533 117.00267 34834 ft 461 kts 71°
2026-04-22 07:35 -5.92447 117.06318 34833 ft 461 kts 71°
2026-04-22 07:36 -5.90336 117.12449 34834 ft 462 kts 71°
2026-04-22 07:36 -5.88238 117.18536 34835 ft 461 kts 71°
2026-04-22 07:37 -5.87466 117.21609 34804 ft 461 kts 85°
2026-04-22 07:37 -5.87280 117.24817 34852 ft 460 kts 87°
2026-04-22 07:37 -5.86972 117.31280 34834 ft 460 kts 87°
2026-04-22 07:38 -5.86627 117.37654 34831 ft 460 kts 86°
2026-04-22 07:38 -5.86245 117.44066 34831 ft 460 kts 86°
2026-04-22 07:39 -5.85850 117.50482 34834 ft 460 kts 86°
2026-04-22 07:39 -5.85456 117.56892 34833 ft 460 kts 86°
2026-04-22 07:40 -5.85061 117.63306 34834 ft 460 kts 86°
2026-04-22 07:40 -5.84666 117.69722 34834 ft 460 kts 86°
2026-04-22 07:41 -5.84270 117.76148 34519 ft 465 kts 86°
2026-04-22 07:41 -5.84067 117.79432 33918 ft 463 kts 86°
2026-04-22 07:41 -5.83872 117.82607 33279 ft 461 kts 86°
2026-04-22 07:42 -5.83666 117.85836 32820 ft 455 kts 86°
2026-04-22 07:42 -5.83472 117.88950 32353 ft 449 kts 86°
2026-04-22 07:42 -5.83279 117.92102 31892 ft 443 kts 86°
2026-04-22 07:42 -5.83091 117.95174 31439 ft 438 kts 86°
2026-04-22 07:43 -5.82905 117.98204 30991 ft 432 kts 86°
2026-04-22 07:43 -5.82719 118.01197 30547 ft 427 kts 86°
2026-04-22 07:43 -5.82538 118.04119 30117 ft 422 kts 86°
2026-04-22 07:43 -5.82357 118.07044 29677 ft 417 kts 86°
2026-04-22 07:44 -5.82062 118.09920 29112 ft 414 kts 78°
2026-04-22 07:44 -5.81265 118.12699 28393 ft 416 kts 69°
2026-04-22 07:44 -5.80179 118.15388 27787 ft 414 kts 68°
2026-04-22 07:44 -5.79092 118.18055 27257 ft 411 kts 68°
2026-04-22 07:45 -5.78363 118.19848 26909 ft 409 kts 68°
2026-04-22 07:45 -5.77299 118.22480 26384 ft 406 kts 68°
2026-04-22 07:45 -5.76248 118.25096 25869 ft 402 kts 68°
2026-04-22 07:45 -5.75538 118.26873 25494 ft 401 kts 68°
2026-04-22 07:46 -5.74804 118.28712 25129 ft 399 kts 68°
2026-04-22 07:46 -5.73780 118.31283 24627 ft 396 kts 68°
2026-04-22 07:46 -5.72760 118.33846 24094 ft 393 kts 68°
2026-04-22 07:47 -5.71749 118.36388 23575 ft 390 kts 68°
2026-04-22 07:47 -5.70749 118.38901 23121 ft 386 kts 68°
2026-04-22 07:47 -5.69758 118.41394 22662 ft 383 kts 68°
2026-04-22 07:47 -5.68774 118.43869 22168 ft 380 kts 68°
2026-04-22 07:48 -5.67798 118.46322 21674 ft 377 kts 68°
2026-04-22 07:48 -5.66831 118.48752 21221 ft 373 kts 68°
2026-04-22 07:48 -5.65872 118.51162 20759 ft 370 kts 68°
2026-04-22 07:48 -5.64922 118.53549 20269 ft 367 kts 68°
2026-04-22 07:49 -5.63976 118.55925 19782 ft 365 kts 68°
2026-04-22 07:49 -5.63039 118.58277 19313 ft 362 kts 67°
2026-04-22 07:49 -5.62108 118.60616 18863 ft 359 kts 67°
2026-04-22 07:49 -5.61187 118.62929 18429 ft 355 kts 67°
2026-04-22 07:50 -5.60273 118.65224 17960 ft 353 kts 67°
2026-04-22 07:50 -5.59364 118.67505 17492 ft 351 kts 67°
2026-04-22 07:50 -5.58462 118.69769 17040 ft 348 kts 67°
2026-04-22 07:50 -5.57568 118.72013 16591 ft 345 kts 67°
2026-04-22 07:51 -5.56681 118.74238 16150 ft 342 kts 67°
2026-04-22 07:51 -5.55800 118.76450 15699 ft 340 kts 67°
2026-04-22 07:51 -5.54924 118.78645 15258 ft 337 kts 68°
2026-04-22 07:51 -5.54056 118.80824 14818 ft 335 kts 68°
2026-04-22 07:52 -5.53194 118.82984 14378 ft 332 kts 68°
2026-04-22 07:52 -5.52340 118.85128 13935 ft 330 kts 68°
2026-04-22 07:52 -5.51489 118.87263 13498 ft 328 kts 68°
2026-04-22 07:52 -5.50648 118.89373 13074 ft 324 kts 68°
2026-04-22 07:53 -5.49815 118.91481 12627 ft 326 kts 68°
2026-04-22 07:53 -5.48981 118.93579 12316 ft 321 kts 68°
2026-04-22 07:53 -5.48157 118.95646 11911 ft 318 kts 68°
2026-04-22 07:53 -5.47339 118.97686 11658 ft 310 kts 68°
2026-04-22 07:54 -5.46551 118.99654 11559 ft 298 kts 68°
2026-04-22 07:54 -5.45791 119.01553 11421 ft 289 kts 68°
2026-04-22 07:54 -5.45054 119.03396 11243 ft 281 kts 68°
2026-04-22 07:54 -5.44331 119.05206 10967 ft 278 kts 68°
2026-04-22 07:55 -5.43612 119.07005 10637 ft 278 kts 68°
2026-04-22 07:55 -5.42893 119.08802 10285 ft 277 kts 68°
2026-04-22 07:55 -5.42175 119.10598 9950 ft 277 kts 68°
2026-04-22 07:55 -5.41459 119.12393 9600 ft 277 kts 67°
2026-04-22 07:56 -5.40743 119.14182 9280 ft 276 kts 68°
2026-04-22 07:56 -5.40029 119.15970 8954 ft 276 kts 68°
2026-04-22 07:56 -5.39317 119.17753 8627 ft 275 kts 68°
2026-04-22 07:56 -5.38609 119.19526 8331 ft 273 kts 68°
2026-04-22 07:57 -5.37903 119.21292 8031 ft 271 kts 68°
2026-04-22 07:57 -5.37203 119.23045 7727 ft 270 kts 68°
2026-04-22 07:57 -5.36506 119.24790 7416 ft 269 kts 68°
2026-04-22 07:57 -5.35813 119.26526 7096 ft 268 kts 68°
2026-04-22 07:58 -5.35121 119.28260 6801 ft 267 kts 68°
2026-04-22 07:58 -5.34434 119.29979 6541 ft 264 kts 68°
2026-04-22 07:58 -5.33752 119.31685 6244 ft 263 kts 68°
2026-04-22 07:58 -5.33073 119.33381 5928 ft 262 kts 68°
2026-04-22 07:59 -5.32397 119.35075 5635 ft 261 kts 68°
2026-04-22 07:59 -5.31723 119.36758 5378 ft 258 kts 68°
2026-04-22 07:59 -5.31076 119.38378 5342 ft 243 kts 68°
2026-04-22 07:59 -5.30462 119.39910 5268 ft 231 kts 67°
2026-04-22 08:00 -5.29884 119.41379 5219 ft 222 kts 68°
2026-04-22 08:00 -5.29144 119.42694 5035 ft 217 kts 44°
2026-04-22 08:00 -5.27890 119.43633 4350 ft 232 kts 34°
2026-04-22 08:00 -5.26509 119.44466 3959 ft 228 kts 30°
2026-04-22 08:01 -5.25183 119.45211 3665 ft 209 kts 30°
2026-04-22 08:01 -5.23969 119.45905 3384 ft 193 kts 31°
2026-04-22 08:01 -5.22850 119.46550 3132 ft 180 kts 31°
2026-04-22 08:01 -5.21802 119.47155 2901 ft 168 kts 31°
2026-04-22 08:02 -5.20808 119.47727 2706 ft 162 kts 31°
2026-04-22 08:02 -5.19834 119.48293 2492 ft 164 kts 30°
2026-04-22 08:02 -5.18848 119.48858 2278 ft 163 kts 31°
2026-04-22 08:02 -5.17864 119.49424 2053 ft 163 kts 31°
2026-04-22 08:03 -5.16898 119.49985 1824 ft 159 kts 31°
2026-04-22 08:03 -5.15942 119.50556 1639 ft 161 kts 27°
2026-04-22 08:03 -5.14948 119.51089 1414 ft 163 kts 32°
2026-04-22 08:03 -5.13957 119.51667 1221 ft 168 kts 28°
2026-04-22 08:04 -5.12945 119.52261 956 ft 167 kts 29°
2026-04-22 08:04 -5.11964 119.52828 737 ft 158 kts 29°
2026-04-22 08:04 -5.11023 119.53370 534 ft 156 kts 29°
2026-04-22 08:04 -5.10075 119.53908 303 ft 157 kts 31°
2026-04-22 08:05 -5.09142 119.54457 84 ft 154 kts 29°
2026-04-22 08:05 -5.08263 119.54964 58 ft 134 kts 29°
2026-04-22 08:05 -5.07368 119.55483 599 ft 159 kts 29°
2026-04-22 08:05 -5.06337 119.55995 1323 ft 176 kts 16°
2026-04-22 08:06 -5.05112 119.56287 2190 ft 183 kts 10°
2026-04-22 08:06 -5.03866 119.56531 3277 ft 184 kts 11°
2026-04-22 08:06 -5.02602 119.56778 3783 ft 188 kts 11°
2026-04-22 08:06 -5.01297 119.57035 4024 ft 196 kts 11°
2026-04-22 08:07 -4.99944 119.57305 4015 ft 198 kts 12°
2026-04-22 08:07 -4.98590 119.57580 4023 ft 194 kts 12°
2026-04-22 08:07 -4.97278 119.57850 4025 ft 191 kts 12°
2026-04-22 08:07 -4.95984 119.58117 4023 ft 189 kts 12°
2026-04-22 08:08 -4.94709 119.58382 4024 ft 186 kts 12°
2026-04-22 08:08 -4.93449 119.58644 4017 ft 184 kts 12°
2026-04-22 08:08 -4.92200 119.58904 4023 ft 182 kts 12°
2026-04-22 08:08 -4.90960 119.59163 4039 ft 187 kts 12°
2026-04-22 08:09 -4.89677 119.59431 4036 ft 190 kts 12°
2026-04-22 08:09 -4.88382 119.59701 4024 ft 189 kts 12°
2026-04-22 08:09 -4.87077 119.59974 3778 ft 192 kts 12°
2026-04-22 08:09 -4.85777 119.60246 3525 ft 189 kts 12°
2026-04-22 08:10 -4.84502 119.60518 3302 ft 184 kts 14°
2026-04-22 08:10 -4.83428 119.61134 3224 ft 177 kts 56°
2026-04-22 08:10 -4.83232 119.62287 3241 ft 174 kts 106°
2026-04-22 08:10 -4.83765 119.63379 3207 ft 176 kts 131°
2026-04-22 08:11 -4.84769 119.64049 3226 ft 176 kts 162°
2026-04-22 08:11 -4.85952 119.64376 3231 ft 177 kts 164°
2026-04-22 08:11 -4.87147 119.64701 3226 ft 178 kts 164°
2026-04-22 08:11 -4.88350 119.65025 3235 ft 179 kts 165°
2026-04-22 08:12 -4.89563 119.65296 3206 ft 179 kts 179°
2026-04-22 08:12 -4.90724 119.64915 3170 ft 180 kts 206°
2026-04-22 08:12 -4.91897 119.64429 3062 ft 181 kts 202°
2026-04-22 08:12 -4.93004 119.63875 3021 ft 175 kts 210°
2026-04-22 08:13 -4.94007 119.63208 2907 ft 170 kts 211°
2026-04-22 08:13 -4.95009 119.62631 2690 ft 163 kts 209°
2026-04-22 08:13 -4.95979 119.62079 2476 ft 158 kts 209°
2026-04-22 08:13 -4.96925 119.61534 2275 ft 157 kts 210°
2026-04-22 08:14 -4.97874 119.60985 2071 ft 157 kts 211°
2026-04-22 08:14 -4.98800 119.60447 1895 ft 150 kts 211°
2026-04-22 08:14 -4.99701 119.59923 1667 ft 147 kts 211°
2026-04-22 08:14 -5.00573 119.59418 1467 ft 142 kts 211°
2026-04-22 08:15 -5.01419 119.58927 1282 ft 139 kts 211°
2026-04-22 08:15 -5.02259 119.58439 1100 ft 141 kts 209°
2026-04-22 08:15 -5.03117 119.57941 914 ft 143 kts 208°
2026-04-22 08:15 -5.03978 119.57441 722 ft 142 kts 208°
2026-04-22 08:16 -5.04834 119.56945 528 ft 141 kts 208°
2026-04-22 08:16 -5.05678 119.56455 345 ft 142 kts 208°
2026-04-22 08:16 -5.06534 119.55958 155 ft 141 kts 208°
2026-04-22 08:16 -5.07369 119.55479 46 ft 130 kts 209°
2026-04-22 08:17 -5.08069 119.55071 37 ft 99 kts 210°
2026-04-22 08:17 -5.08480 119.54827 40 ft 40 kts 223°
2026-04-22 08:17 -5.08564 119.54704 40 ft 13 kts 239°
2026-04-22 08:17 -5.08593 119.54657 40 ft 0 kts 239°
2026-04-22 08:18 -5.08608 119.54630 41 ft 9 kts 246°
2026-04-22 08:19 -5.08572 119.54586 40 ft 10 kts 357°
2026-04-22 08:19 -5.08511 119.54615 37 ft 10 kts 30°
2026-04-22 08:19 -5.08450 119.54650 40 ft 11 kts 30°
2026-04-22 08:19 -5.08372 119.54696 40 ft 14 kts 30°
2026-04-22 08:20 -5.08288 119.54744 40 ft 14 kts 30°
2026-04-22 08:20 -5.08208 119.54791 40 ft 13 kts 30°
2026-04-22 08:20 -5.08130 119.54835 40 ft 13 kts 26°
2026-04-22 08:20 -5.08052 119.54819 40 ft 12 kts 310°
2026-04-22 08:21 -5.08020 119.54765 40 ft 7 kts 300°
2026-04-22 08:21 -5.07987 119.54730 40 ft 7 kts 341°
2026-04-22 08:21 -5.07939 119.54732 40 ft 7 kts
2026-04-22 08:21 -5.07892 119.54743 40 ft 7 kts 26°
2026-04-22 08:22 -5.07852 119.54767 40 ft 7 kts 30°
2026-04-22 08:22 -5.07813 119.54789 40 ft 6 kts 30°
2026-04-22 08:22 -5.07787 119.54785 40 ft 4 kts 318°
2026-04-22 08:22 -5.07772 119.54764 40 ft 4 kts 300°
2026-04-22 08:23 -5.07762 119.54745 38 ft 1 kts 300°
2026-04-22 08:23 -5.07759 119.54741 40 ft 0 kts 300°